Wind_Speed
18 19 19 18 18 18 20 21 21 21 22 22 21 20 19 18 18 18 17 17 16 16 16 16 16 16 16 16 17 16 16 17 17 17 17 16 16 16 15 14 13 12 13
23 23 24 23 22 21 21 22 23 22 22 22 22 22 21 20 19 19 19 19 19 18 18 17 17 17 17 17 17 18 19 20 20 20 19 18 17 16 16 15 14 14 15
25 25 25 24 24 23 22 22 23 22 22 22 22 22 22 22 22 21 21 21 20 20 19 19 19 18 18 19 20 21 22 23 23 22 21 20 18 17 16 16 15 15 16
25 24 23 22 21 21 21 22 22 22 22 22 23 23 23 23 24 24 24 23 23 22 21 21 22 22 22 23 24 25 26 26 26 26 24 22 20 19 18 17 16 16 16
22 21 19 19 19 20 21 21 21 21 22 23 24 25 25 25 25 26 26 26 26 26 26 26 26 27 27 28 29 29 30 30 30 29 28 24 23 21 19 19 18 18 18
17 17 17 18 19 20 19 20 20 22 23 24 26 27 27 28 27 28 29 29 30 31 31 31 32 33 33 33 34 36 36 35 34 34 31 28 26 25 24 23 21 20 20
14 15 15 17 18 18 19 19 19 21 22 24 26 28 29 30 30 31 31 32 33 33 34 34 34 35 37 37 38 40 41 41 40 39 37 33 32 30 27 26 24 23 23
15 16 15 16 16 17 18 18 18 18 19 21 24 25 26 28 29 29 31 33 33 32 32 31 31 31 30 33 35 38 40 41 42 44 42 37 36 34 29 25 25 25 26
15 16 15 15 16 18 19 20 21 20 20 21 23 25 26 27 27 27 28 29 31 31 31 30 29 29 31 31 31 32 31 33 34 33 34 35 34 29 26 26 27 28 30
17 15 14 14 16 18 19 20 21 22 23 24 25 27 27 28 29 29 29 28 29 29 29 30 30 30 30 31 32 33 32 32 31 30 27 27 27 26 26 28 30 31 32
16 16 15 14 16 17 18 20 21 23 24 25 27 27 28 29 29 29 28 28 28 28 29 29 29 29 29 30 32 33 34 34 34 34 33 31 30 30 31 32 32 33 33
16 18 15 15 17 18 20 21 23 24 26 27 28 29 29 28 28 28 27 27 27 28 29 30 30 31 31 32 32 33 33 34 34 35 34 34 34 34 34 35 35 35 35
20 22 22 21 22 21 22 24 25 26 28 30 31 31 32 31 30 29 29 29 29 30 31 32 33 34 35 35 36 36 36 37 37 38 37 37 37 38 38 39 39 39 39
25 26 25 24 25 26 26 26 28 29 30 32 33 34 34 34 34 33 32 31 31 31 32 33 33 35 36 37 37 38 39 39 40 41 41 40 40 40 41 42 43 43 43
27 28 27 26 27 28 29 28 30 31 32 33 34 35 35 36 36 36 36 35 35 35 35 35 36 37 38 40 40 42 42 43 44 45 46 47 46 46 46 46 45 45 45
28 28 27 26 27 27 27 28 29 32 34 35 37 38 39 38 38 37 36 36 37 39 40 41 42 42 43 43 45 46 47 48 49 49 50 51 52 52 52 53 53 52 51
30 30 27 23 24 25 27 28 30 33 35 37 40 42 43 42 40 38 37 38 39 41 44 46 48 49 49 50 51 51 50 50 50 51 51 52 53 54 55 56 57 58 58
31 27 21 18 21 26 28 31 33 35 37 39 41 43 44 44 41 39 40 41 43 45 48 50 51 52 52 53 54 55 56 57 57 58 60 61 62 62 62 62 62 62 61
32 22 17 24 24 27 29 31 31 33 35 39 41 43 44 44 43 43 44 45 47 49 52 53 53 54 55 56 58 59 60 62 63 65 67 69 70 72 72 72 71 71 69
35 34 41 39 36 36 36 35 35 35 37 39 42 44 45 45 46 48 48 49 51 52 53 54 55 57 59 62 63 64 65 67 68 70 73 75 77 78 79 79 79 78 77
43 46 47 45 45 45 44 43 41 41 42 43 44 45 46 48 50 49 50 51 52 54 56 58 60 62 65 66 68 69 70 72 74 76 78 80 81 81 81 80 80 80 80
43 46 48 50 51 50 49 48 48 48 49 49 50 49 49 51 51 51 53 55 57 58 60 63 66 67 68 70 73 76 77 77 78 80 80 80 78 77 75 73 73 74 74
42 45 48 50 52 53 52 52 52 53 54 54 55 54 53 52 53 56 59 61 62 64 65 67 70 72 73 74 78 81 84 84 82 78 75 72 70 67 66 65 66 66 66
42 44 46 48 50 51 53 54 55 55 56 56 57 57 58 60 63 66 68 69 70 71 72 73 75 78 80 81 82 84 85 83 78 72 64 62 61 60 60 60 60 61 61
42 43 45 47 48 49 51 52 53 53 55 56 58 60 63 66 70 73 75 77 77 78 79 80 82 83 85 86 84 82 77 71 65 63 58 55 54 54 54 54 54 55 56
41 42 43 44 45 45 46 48 50 52 55 58 61 64 67 70 74 77 80 82 83 85 86 86 86 86 85 82 75 67 60 57 55 55 54 51 49 48 48 48 48 49 50
Wind_Direction
285 282 283 286 286 282 276 273 270 265 258 256 256 257 257 256 254 250 246 245 248 252 256 259 262 264 265 266 266 263 258 252 250 251 252 253 255 259 260 262 264 266 268
290 288 286 285 285 284 277 269 264 262 259 257 257 258 258 257 255 252 249 247 248 251 254 257 260 262 262 260 257 256 254 253 252 251 251 251 252 253 255 256 257 260 263
293 290 284 281 280 282 279 272 265 259 255 254 256 256 257 256 254 252 252 251 251 252 253 254 255 255 254 252 249 249 249 250 250 250 250 250 252 253 255 256 256 258 261
292 286 280 276 276 279 280 276 269 262 256 254 256 257 256 255 254 253 254 254 253 252 254 255 256 255 253 251 249 248 247 248 248 249 249 248 250 252 253 255 256 258 261
289 281 276 272 273 278 280 279 273 267 260 256 256 257 256 254 254 255 256 256 256 256 256 257 257 257 255 253 251 249 248 247 247 248 247 245 245 249 249 251 254 256 259
286 281 278 275 277 280 281 279 273 267 263 260 257 257 257 255 255 257 258 258 258 259 260 260 259 258 256 254 253 250 247 246 245 247 245 243 243 245 247 248 251 255 259
293 290 286 281 281 282 282 281 279 273 267 266 263 262 262 259 256 257 260 263 263 264 265 265 264 264 261 259 257 255 250 247 246 247 246 244 245 248 250 252 254 260 264
299 294 290 286 283 279 281 285 286 283 279 278 274 274 274 272 271 269 271 274 277 276 276 277 276 277 277 275 272 266 258 252 251 250 249 246 246 248 255 261 265 268 270
299 295 294 293 291 289 288 289 292 293 293 292 289 290 290 290 290 291 291 291 291 291 290 290 290 290 289 285 283 281 274 266 263 260 256 252 252 256 262 268 272 272 273
298 295 298 297 299 300 297 294 296 297 297 296 294 294 294 295 295 295 297 299 298 297 295 294 294 292 291 289 289 290 291 289 286 280 278 272 269 270 270 270 270 271 272
298 292 299 294 296 299 300 299 299 298 296 295 294 294 295 296 297 298 299 300 299 298 296 295 294 294 292 291 290 290 291 292 292 291 289 286 281 277 273 271 269 268 268
297 302 300 300 295 295 296 297 298 298 297 297 297 298 299 301 302 301 300 298 297 296 295 294 294 293 292 291 290 289 288 288 287 286 285 283 280 277 273 271 269 267 267
298 301 301 299 295 292 290 291 292 293 294 296 299 301 302 302 301 300 299 297 297 296 295 295 294 293 291 290 290 288 287 286 285 284 282 280 279 277 274 272 269 267 267
296 295 294 293 292 292 291 291 292 293 293 293 293 294 295 296 297 298 298 299 298 297 296 294 292 290 290 290 290 289 288 286 285 284 283 281 279 278 276 275 272 271 269
293 290 290 291 291 293 294 295 295 294 294 293 291 290 290 291 293 295 297 298 299 298 296 294 292 290 289 288 287 286 285 284 284 283 282 280 279 278 276 275 274 273 272
291 288 289 292 293 296 298 299 298 297 296 295 293 291 289 289 290 291 293 294 295 294 294 293 292 292 291 290 289 288 286 286 286 287 286 284 282 280 278 276 275 274 272
288 284 284 290 294 298 300 301 300 299 300 299 298 295 292 289 287 287 288 290 291 292 294 295 295 294 294 294 293 292 290 289 288 287 286 285 284 282 281 279 277 275 273
280 269 271 289 298 301 302 301 299 298 299 299 298 298 294 289 286 286 288 290 292 293 295 295 294 293 293 293 293 293 293 293 294 294 293 292 290 288 285 283 280 277 275
285 275 297 313 313 309 307 304 299 297 297 298 297 299 296 288 285 285 287 289 291 293 294 294 294 294 294 294 294 293 294 294 294 294 294 293 292 291 289 286 283 280 277
297 302 309 315 319 317 312 307 302 299 298 297 296 297 297 292 289 289 288 289 291 292 292 292 292 292 293 293 293 292 292 292 293 292 292 292 290 289 288 286 283 280 278
301 304 310 313 314 313 311 308 305 303 301 299 297 297 296 294 292 290 292 293 292 291 291 291 292 292 292 292 292 292 291 291 292 291 291 289 288 287 285 284 282 281 278
298 302 305 307 307 307 307 307 307 305 303 302 301 299 297 295 291 289 293 293 292 291 292 292 292 291 291 291 292 292 291 291 291 290 289 288 286 284 283 282 280 279 277
291 295 298 300 302 304 305 305 305 304 303 302 301 300 299 296 292 293 294 293 293 293 293 294 293 293 292 292 293 294 293 293 291 289 287 285 283 281 280 280 279 278 276
288 292 295 297 299 300 301 302 302 302 301 300 300 299 298 297 296 296 296 296 295 295 295 295 294 294 294 293 293 293 293 293 292 288 285 283 282 280 279 277 275 274 273
290 294 296 297 298 298 298 298 299 298 298 298 297 297 297 296 296 296 295 295 295 295 294 294 293 293 293 293 293 292 291 290 289 288 287 285 283 282 280 278 275 273 271
295 296 297 297 298 298 298 298 297 297 297 297 297 297 296 296 295 294 294 294 294 293 292 292 292 292 292 293 292 291 290 288 288 289 289 288 286 284 282 280 277 275 272
Height
5901 5900 5899 5899 5899 5898 5898 5897 5897 5897 5897 5897 5897 5897 5898 5898 5898 5897 5897 5897 5897 5897 5897 5897 5897 5897 5898 5897 5897 5897 5896 5896 5895 5895 5895 5896 5896 5896 5896 5896 5896 5896 5897
5897 5896 5895 5895 5894 5894 5893 5893 5893 5893 5893 5893 5894 5894 5895 5895 5896 5896 5895 5895 5894 5894 5895 5895 5895 5895 5896 5896 5895 5895 5893 5893 5892 5892 5892 5892 5893 5892 5893 5893 5893 5894 5894
5893 5892 5891 5890 5890 5889 5889 5888 5888 5888 5889 5890 5891 5891 5892 5892 5893 5893 5893 5893 5892 5892 5892 5892 5892 5893 5893 5893 5892 5891 5890 5889 5889 5889 5889 5889 5890 5890 5890 5890 5891 5891 5891
5890 5888 5887 5886 5886 5885 5885 5885 5884 5884 5885 5886 5887 5888 5888 5889 5889 5889 5890 5890 5889 5889 5889 5889 5889 5889 5889 5889 5888 5887 5886 5885 5884 5884 5885 5886 5885 5885 5886 5887 5887 5888 5888
5886 5884 5883 5883 5883 5882 5882 5881 5881 5881 5882 5883 5884 5884 5885 5885 5885 5886 5886 5886 5886 5886 5885 5885 5885 5885 5884 5884 5884 5883 5882 5880 5880 5879 5880 5881 5880 5880 5881 5882 5882 5883 5884
5883 5881 5880 5880 5880 5880 5879 5878 5878 5878 5878 5879 5880 5880 5881 5881 5881 5882 5882 5882 5882 5881 5881 5880 5880 5879 5878 5878 5877 5876 5875 5874 5874 5873 5874 5875 5874 5873 5874 5875 5876 5877 5878
5881 5879 5879 5878 5878 5877 5876 5876 5875 5875 5875 5875 5876 5876 5877 5877 5877 5877 5877 5877 5876 5875 5875 5874 5873 5872 5871 5871 5870 5868 5868 5867 5867 5867 5867 5869 5868 5868 5868 5869 5870 5871 5871
5880 5878 5877 5876 5875 5875 5874 5873 5873 5873 5873 5873 5873 5872 5872 5872 5872 5872 5871 5871 5870 5869 5868 5867 5866 5865 5864 5864 5863 5862 5861 5861 5860 5860 5861 5862 5861 5862 5863 5863 5864 5865 5866
5877 5875 5874 5874 5873 5872 5872 5871 5871 5870 5870 5870 5869 5869 5868 5868 5867 5867 5866 5866 5865 5864 5862 5861 5860 5859 5858 5858 5856 5855 5854 5853 5853 5853 5855 5855 5855 5856 5857 5858 5859 5859 5860
5876 5871 5872 5871 5871 5871 5870 5868 5868 5867 5866 5866 5865 5864 5864 5863 5862 5862 5861 5860 5860 5859 5858 5857 5855 5854 5853 5852 5851 5850 5849 5847 5847 5847 5848 5848 5849 5850 5851 5852 5852 5853 5853
5872 5868 5869 5870 5870 5868 5867 5865 5864 5864 5863 5862 5860 5860 5859 5859 5858 5857 5856 5856 5855 5854 5853 5852 5851 5849 5848 5847 5845 5844 5843 5842 5841 5841 5842 5843 5843 5844 5844 5845 5845 5845 5845
5867 5867 5865 5866 5867 5866 5864 5862 5861 5860 5858 5857 5856 5855 5854 5853 5853 5852 5851 5850 5849 5848 5847 5846 5845 5844 5842 5841 5840 5839 5838 5837 5836 5836 5837 5836 5836 5837 5837 5837 5838 5837 5837
5864 5865 5865 5864 5863 5862 5861 5859 5857 5857 5855 5853 5852 5850 5849 5848 5847 5847 5845 5844 5844 5843 5841 5840 5839 5837 5836 5835 5834 5833 5832 5831 5829 5829 5830 5829 5829 5829 5829 5829 5829 5828 5828
5865 5863 5863 5862 5860 5858 5856 5855 5853 5853 5851 5850 5848 5846 5844 5843 5841 5840 5839 5838 5837 5836 5835 5833 5832 5831 5829 5828 5826 5825 5824 5823 5822 5821 5820 5821 5821 5820 5819 5819 5819 5819 5818
5864 5860 5860 5859 5857 5855 5853 5852 5850 5848 5847 5846 5844 5842 5840 5837 5835 5833 5831 5830 5829 5828 5827 5825 5823 5822 5821 5819 5817 5816 5814 5813 5812 5811 5810 5810 5810 5810 5809 5808 5808 5808 5808
5860 5857 5856 5856 5854 5852 5850 5848 5846 5845 5843 5841 5839 5836 5834 5832 5830 5828 5825 5823 5821 5819 5817 5816 5814 5812 5810 5809 5807 5805 5804 5802 5801 5800 5799 5797 5797 5797 5797 5796 5795 5796 5796
5852 5849 5849 5851 5850 5849 5847 5845 5843 5840 5838 5836 5833 5830 5828 5825 5823 5821 5819 5817 5814 5811 5809 5806 5803 5801 5798 5795 5793 5791 5790 5789 5787 5786 5785 5784 5783 5782 5781 5781 5781 5781 5781
5840 5834 5839 5846 5847 5845 5844 5841 5838 5836 5833 5830 5827 5824 5821 5818 5816 5813 5810 5808 5806 5803 5800 5796 5793 5790 5787 5783 5780 5777 5775 5773 5770 5768 5766 5765 5764 5763 5763 5762 5763 5763 5764
5831 5827 5831 5839 5840 5839 5838 5836 5833 5830 5827 5823 5820 5817 5813 5810 5807 5804 5801 5798 5796 5793 5789 5785 5781 5777 5774 5770 5767 5764 5762 5759 5756 5754 5751 5748 5746 5744 5742 5742 5742 5742 5743
5832 5828 5829 5829 5830 5831 5831 5829 5826 5823 5819 5816 5812 5809 5805 5801 5798 5795 5791 5789 5786 5782 5778 5773 5769 5766 5762 5757 5754 5751 5749 5745 5742 5739 5736 5732 5729 5726 5722 5720 5719 5719 5720
5834 5829 5824 5821 5822 5822 5822 5820 5817 5814 5810 5806 5804 5801 5796 5792 5788 5784 5781 5778 5774 5770 5766 5761 5756 5753 5748 5743 5738 5735 5733 5730 5726 5722 5718 5714 5710 5706 5702 5699 5697 5696 5696
5831 5826 5822 5819 5817 5815 5812 5809 5806 5802 5799 5796 5793 5790 5786 5782 5778 5773 5770 5766 5762 5758 5753 5747 5742 5737 5733 5728 5722 5716 5713 5712 5710 5704 5699 5695 5690 5685 5682 5679 5676 5675 5675
5831 5827 5823 5818 5814 5809 5805 5801 5797 5793 5789 5785 5782 5778 5774 5769 5764 5760 5756 5752 5747 5743 5738 5733 5726 5720 5715 5712 5706 5697 5690 5687 5686 5685 5680 5674 5669 5666 5664 5661 5657 5656 5655
5827 5824 5820 5815 5810 5805 5800 5795 5790 5785 5780 5776 5771 5767 5763 5757 5751 5745 5739 5734 5730 5725 5720 5715 5709 5702 5695 5691 5688 5680 5671 5664 5659 5657 5661 5655 5650 5647 5645 5643 5640 5639 5638
5821 5818 5814 5809 5804 5799 5794 5789 5783 5778 5772 5767 5762 5756 5751 5744 5737 5729 5722 5716 5711 5706 5700 5694 5689 5683 5676 5669 5665 5660 5653 5646 5640 5634 5637 5637 5633 5630 5626 5624 5622 5621 5620
5813 5810 5806 5801 5796 5791 5786 5781 5775 5769 5763 5758 5752 5745 5738 5731 5722 5713 5705 5698 5692 5685 5679 5673 5667 5661 5655 5648 5643 5638 5633 5629 5625 5621 5618 5617 5615 5613 5610 5608 5606 5605 5604